Hourly Weather Alpeevo

Today, 11 May, Tuesday

Time Temperature Precipitation Wind Pressure Humidity
00:00 +6°C° 0 mm 5 mps 750 mmHg 76%
01:00 +6°C° 0 mm 5 mps 750 mmHg 78%
02:00 +6°C° 0 mm 5 mps 750 mmHg 80%
03:00 +6°C° 0 mm 5 mps 750 mmHg 82%
04:00 +6°C° 0 mm 5 mps 750 mmHg 83%
05:00 +6°C° 0 mm 5 mps 750 mmHg 85%
06:00 +7°C° 0 mm 6 mps 750 mmHg 82%
07:00 +9°C° 0 mm 7 mps 750 mmHg 78%
08:00 +11°C° 0 mm 7 mps 750 mmHg 74%
09:00 +14°C° 0 mm 7 mps 750 mmHg 73%
10:00 +15°C° 0 mm 8 mps 749 mmHg 71%
11:00 +17°C° 0 mm 8 mps 749 mmHg 69%
12:00 +17°C° 0 mm 7 mps 749 mmHg 70%
13:00 +17°C° 0 mm 7 mps 749 mmHg 71%
14:00 +17°C° 0 mm 7 mps 749 mmHg 72%
15:00 +16°C° 0.1 mm 6 mps 749 mmHg 76%
16:00 +14°C° 0.1 mm 5 mps 750 mmHg 79%
17:00 +12°C° 0.1 mm 5 mps 750 mmHg 82%
18:00 +11°C° 0 mm 4 mps 750 mmHg 86%
19:00 +10°C° 0 mm 4 mps 750 mmHg 89%
20:00 +8°C° 0 mm 3 mps 751 mmHg 92%
21:00 +8°C° 0 mm 3 mps 751 mmHg 92%
22:00 +7°C° 0 mm 3 mps 751 mmHg 91%
23:00 +6°C° 0 mm 4 mps 751 mmHg 91%

Tomorrow, 12 May, Wednesday

Time Temperature Precipitation Wind Pressure Humidity
00:00 +5°C° 0 mm 3 mps 751 mmHg 92%
01:00 +5°C° 0 mm 3 mps 751 mmHg 93%
02:00 +4°C° 0 mm 3 mps 751 mmHg 94%
03:00 +4°C° 0 mm 3 mps 751 mmHg 93%
04:00 +5°C° 0 mm 3 mps 751 mmHg 92%
05:00 +5°C° 0 mm 3 mps 751 mmHg 90%
06:00 +7°C° 0 mm 4 mps 751 mmHg 84%
07:00 +9°C° 0 mm 5 mps 751 mmHg 77%
08:00 +10°C° 0 mm 5 mps 751 mmHg 70%
09:00 +12°C° 0 mm 5 mps 751 mmHg 67%
10:00 +13°C° 0 mm 5 mps 750 mmHg 64%
11:00 +14°C° 0 mm 4 mps 750 mmHg 61%
12:00 +14°C° 0.1 mm 4 mps 749 mmHg 62%
13:00 +14°C° 0.1 mm 5 mps 748 mmHg 62%
14:00 +14°C° 0.1 mm 5 mps 748 mmHg 63%
15:00 +13°C° 0.2 mm 5 mps 747 mmHg 68%
16:00 +13°C° 0.2 mm 5 mps 747 mmHg 74%
17:00 +12°C° 0.2 mm 5 mps 747 mmHg 79%
18:00 +11°C° 0.2 mm 4 mps 746 mmHg 84%
19:00 +10°C° 0.2 mm 4 mps 746 mmHg 88%
20:00 +9°C° 0.2 mm 3 mps 746 mmHg 93%
21:00 +8°C° 0.3 mm 4 mps 745 mmHg 93%
22:00 +8°C° 0.3 mm 5 mps 745 mmHg 92%
23:00 +8°C° 0.3 mm 5 mps 745 mmHg 92%

Day after tomorrow, 13 May, Thursday

Time Temperature Precipitation Wind Pressure Humidity
00:00 +8°C° 0.1 mm 5 mps 745 mmHg 92%
01:00 +7°C° 0.1 mm 5 mps 745 mmHg 92%
02:00 +7°C° 0.1 mm 5 mps 745 mmHg 92%
03:00 +7°C° 0 mm 5 mps 745 mmHg 93%
04:00 +7°C° 0 mm 4 mps 745 mmHg 94%
05:00 +7°C° 0 mm 4 mps 745 mmHg 95%
06:00 +8°C° 0 mm 5 mps 745 mmHg 92%
07:00 +9°C° 0 mm 5 mps 745 mmHg 89%
08:00 +10°C° 0 mm 5 mps 745 mmHg 86%
09:00 +12°C° 0.1 mm 5 mps 745 mmHg 80%
10:00 +13°C° 0.1 mm 5 mps 745 mmHg 74%
11:00 +14°C° 0.1 mm 5 mps 745 mmHg 68%
12:00 +15°C° 0 mm 5 mps 744 mmHg 63%
13:00 +16°C° 0 mm 5 mps 744 mmHg 58%
14:00 +17°C° 0 mm 4 mps 744 mmHg 54%
15:00 +17°C° 0 mm 4 mps 744 mmHg 58%
16:00 +17°C° 0 mm 3 mps 744 mmHg 62%
17:00 +16°C° 0 mm 3 mps 744 mmHg 66%
18:00 +15°C° 0 mm 2 mps 744 mmHg 71%
19:00 +13°C° 0 mm 2 mps 744 mmHg 75%
20:00 +10°C° 0 mm 2 mps 745 mmHg 80%
21:00 +10°C° 0 mm 2 mps 745 mmHg 81%
22:00 +10°C° 0 mm 2 mps 745 mmHg 82%
23:00 +9°C° 0 mm 2 mps 745 mmHg 82%

14 May, Friday

Time Temperature Precipitation Wind Pressure Humidity
00:00 +10°C° 0 mm 3 mps 745 mmHg 84%
01:00 +10°C° 0 mm 3 mps 745 mmHg 85%
02:00 +10°C° 0 mm 3 mps 745 mmHg 86%
03:00 +10°C° 0.1 mm 3 mps 744 mmHg 88%
04:00 +11°C° 0.1 mm 3 mps 744 mmHg 89%
05:00 +11°C° 0.1 mm 3 mps 744 mmHg 91%
06:00 +13°C° 0.2 mm 4 mps 744 mmHg 88%
07:00 +15°C° 0.2 mm 5 mps 744 mmHg 85%
08:00 +16°C° 0.2 mm 5 mps 743 mmHg 82%
09:00 +19°C° 0.1 mm 6 mps 743 mmHg 78%
10:00 +20°C° 0.1 mm 6 mps 743 mmHg 74%
11:00 +22°C° 0.1 mm 6 mps 743 mmHg 70%
12:00 +22°C° 0.5 mm 7 mps 742 mmHg 71%
13:00 +22°C° 0.5 mm 7 mps 742 mmHg 72%
14:00 +23°C° 0.5 mm 7 mps 742 mmHg 72%
15:00 +22°C° 0.6 mm 6 mps 741 mmHg 75%
16:00 +22°C° 0.6 mm 6 mps 741 mmHg 77%
17:00 +21°C° 0.6 mm 5 mps 741 mmHg 80%
18:00 +20°C° 1.2 mm 4 mps 741 mmHg 83%
19:00 +18°C° 1.2 mm 4 mps 741 mmHg 86%
20:00 +17°C° 1.2 mm 3 mps 741 mmHg 89%
21:00 +16°C° 0.7 mm 3 mps 741 mmHg 92%
22:00 +15°C° 0.7 mm 4 mps 740 mmHg 94%
23:00 +14°C° 0.7 mm 4 mps 740 mmHg 96%

15 May, Saturday

Time Temperature Precipitation Wind Pressure Humidity
00:00 +14°C° 0.7 mm 4 mps 740 mmHg 96%
01:00 +14°C° 0.7 mm 3 mps 740 mmHg 96%
02:00 +14°C° 0.7 mm 3 mps 740 mmHg 97%
03:00 +14°C° 0 mm 3 mps 740 mmHg 97%
04:00 +14°C° 0 mm 3 mps 740 mmHg 96%
05:00 +15°C° 0 mm 2 mps 740 mmHg 96%
06:00 +16°C° 0 mm 3 mps 740 mmHg 92%
07:00 +17°C° 0 mm 4 mps 740 mmHg 87%
08:00 +18°C° 0 mm 4 mps 740 mmHg 82%
09:00 +19°C° 0.2 mm 5 mps 740 mmHg 77%
10:00 +19°C° 0.2 mm 5 mps 741 mmHg 72%
11:00 +20°C° 0.2 mm 5 mps 741 mmHg 66%
12:00 +20°C° 0 mm 5 mps 741 mmHg 66%
13:00 +20°C° 0 mm 5 mps 741 mmHg 65%
14:00 +20°C° 0 mm 5 mps 741 mmHg 65%
15:00 +20°C° 0.3 mm 5 mps 741 mmHg 69%
16:00 +19°C° 0.3 mm 4 mps 742 mmHg 74%
17:00 +19°C° 0.3 mm 4 mps 742 mmHg 78%
18:00 +17°C° 0.2 mm 3 mps 742 mmHg 82%
19:00 +16°C° 0.2 mm 3 mps 742 mmHg 86%
20:00 +13°C° 0.2 mm 3 mps 742 mmHg 90%
21:00 +14°C° 0 mm 2 mps 742 mmHg 90%
22:00 +14°C° 0 mm 2 mps 742 mmHg 90%
23:00 +13°C° 0 mm 2 mps 742 mmHg 90%

16 May, Sunday

Time Temperature Precipitation Wind Pressure Humidity
00:00 +13°C° 0 mm 2 mps 742 mmHg 91%
01:00 +13°C° 0 mm 2 mps 743 mmHg 91%
02:00 +12°C° 0 mm 2 mps 743 mmHg 91%
03:00 +13°C° 0 mm 2 mps 743 mmHg 90%
04:00 +13°C° 0 mm 2 mps 743 mmHg 89%
05:00 +13°C° 0 mm 1 mps 743 mmHg 89%
06:00 +14°C° 0 mm 1 mps 744 mmHg 83%
07:00 +16°C° 0 mm 1 mps 744 mmHg 78%
08:00 +19°C° 0 mm 1 mps 744 mmHg 73%
09:00 +20°C° 0 mm 1 mps 744 mmHg 68%
10:00 +21°C° 0 mm 1 mps 744 mmHg 63%
11:00 +22°C° 0 mm 1 mps 744 mmHg 58%
12:00 +23°C° 0 mm 1 mps 744 mmHg 56%
13:00 +23°C° 0 mm 1 mps 744 mmHg 54%
14:00 +24°C° 0 mm 1 mps 744 mmHg 53%
15:00 +23°C° 0 mm 1 mps 744 mmHg 57%
16:00 +23°C° 0 mm 1 mps 744 mmHg 61%
17:00 +23°C° 0 mm 1 mps 743 mmHg 66%
18:00 +20°C° 0 mm 2 mps 743 mmHg 69%
19:00 +19°C° 0 mm 2 mps 743 mmHg 72%
20:00 +17°C° 0 mm 2 mps 744 mmHg 75%
21:00 +17°C° 0 mm 3 mps 743 mmHg 77%
22:00 +16°C° 0 mm 3 mps 743 mmHg 79%
23:00 +14°C° 0 mm 3 mps 743 mmHg 81%
Show more

We Need Your Consent

Meteoprog and our Service Providers may store and access personal data such as cookies, device identifiers or other similar technologies on your device and process such data to personalise content and ads, as well as provide social media features and to analyse the traffic.

  • Store and/or access information on your device

    Cookies, device identifiers or other information can be stored or accessed on your device for the purposes indicated above.

  • Personalised ads and content, ad and content measurement, audience insights, and products development

    Ads and content can be personalised based on a profile. More data can be added to better personalise ads and content. Ad and content performance can be measured. Insights about the audience who saw the ads and content can be derived. Such data can be used to develop or improve user’s experience, systems and software.

By clicking ‘I Agree’ you will allow the use of indicated cookies, device identifiers, web beacons or other similar technologies. Your settings can be changed in the browser on your device.

For certain purposes, legitimate interests may be relied on, rather than consent. You can read more about this in our Privacy and Cookie Policy.